Location: Demmingen
(48.6757°N, 10.4375°E)
Time: 05:01:46
(UTC+00:00)

CZ-2C R/B - Pass Details

Date: 08 August 2024
Orbit: 782 x 869 km, 98.3° (Epoch: 08 September)

Event Time Altitude Azimuth Distance (km) Brightness Sun altitude
Exits shadow 23:27:08 - 103° (ESE) 2,657 5.2 -25.5°
Reaches altitude 10° 23:27:45 10° 98° (E) 2,489 5.1 -25.5°
Maximum altitude 23:31:25 19° 56° (ENE) 1,944 4.9 -25.5°
Drops below altitude 10° 23:35:03 10° 14° (NNE) 2,464 6.1 -25.5°
Sets 23:38:04 0° 357° (N) 3,386 7.2 -25.5°
